EDT,Max TemperatureF,Mean TemperatureF,Min TemperatureF,Max Dew PointF,MeanDew PointF,Min DewpointF,Max Humidity, Mean Humidity, Min Humidity, Max Sea Level PressureIn, Mean Sea Level PressureIn, Min Sea Level PressureIn, Max VisibilityMiles, Mean VisibilityMiles, Min VisibilityMiles, Max Wind SpeedMPH, Mean Wind SpeedMPH, Max Gust SpeedMPH,PrecipitationIn, CloudCover, Events, WindDirDegrees
2013-6-1,84,78,75,79,76,75,100,96,82,30.04,30.01,29.97,10,8,1,15,8,22,0.63,6,Rain-Thunderstorm,133
2013-6-2,86,80,73,77,74,72,100,86,65,30.01,29.98,29.94,10,10,10,12,2,,0.03,2,Rain,164
2013-6-3,84,80,75,77,74,72,100,89,67,30.04,29.97,29.94,10,8,0,15,4,,0.91,4,Fog-Rain,158
2013-6-4,82,76,71,77,75,72,100,91,72,30.06,30.01,29.97,10,10,2,10,4,,0.19,4,Rain,101
2013-6-5,84,80,79,79,78,75,97,90,82,30.04,29.96,29.91,10,10,10,15,10,22,0.01,5,Rain,102
2013-6-6,87,80,75,81,78,73,100,93,77,29.92,29.85,29.80,10,8,1,22,15,34,0.55,5,Rain-Thunderstorm,157
2013-6-7,90,81,73,81,75,73,100,96,61,30.02,29.95,29.87,10,6,1,20,9,28,1.91,5,Rain-Thunderstorm,190
2013-6-8,86,80,73,81,78,74,100,93,77,30.12,30.05,29.98,10,10,2,16,8,21,0.05,5,Rain,144
2013-6-9,87,83,80,77,76,74,90,81,69,30.12,30.08,30.05,10,10,10,17,12,22,0.01,5,,111
2013-6-10,88,83,80,79,78,76,94,84,72,30.10,30.07,30.03,10,10,10,15,11,20,0.00,3,,106
2013-6-11,88,83,79,80,77,72,97,84,61,30.09,30.06,30.03,10,10,2,15,9,20,0.03,2,Rain,125
2013-6-12,84,82,78,79,78,76,100,89,79,30.09,30.07,30.04,10,10,10,9,6,,0.00,4,Thunderstorm,117
2013-6-13,88,81,75,78,75,69,100,85,57,30.07,30.02,29.97,10,10,7,10,3,20,0.00,4,,175
2013-6-14,,,,,,,,,,30.00,29.95,29.91,10,10,6,17,8,,0.00,5,Rain-Thunderstorm,177
2013-6-15,107,92,81,78,75,71,85,53,38,30.07,30.01,29.96,10,10,9,10,5,,0.00,1,,121
2013-6-16,100,90,80,78,76,75,85,64,48,30.10,30.07,30.04,10,10,10,14,3,,0.00,1,,107
2013-6-17,89,86,82,77,76,75,82,75,63,30.09,30.06,30.03,10,10,10,16,9,,0.00,2,,138
2013-6-18,89,86,82,77,76,75,85,75,63,30.09,30.05,30.01,10,10,10,15,9,,0.00,1,,143
2013-6-19,90,85,80,78,76,74,94,75,61,30.06,30.04,30.01,10,10,10,15,8,21,0.00,1,,146
2013-6-20,88,80,73,77,74,71,100,83,65,30.10,30.07,30.04,10,9,1,15,6,22,0.83,4,Rain-Thunderstorm,134
2013-6-21,88,84,80,79,75,71,94,74,59,30.13,30.09,30.04,10,10,10,14,8,,0.10,2,Rain-Thunderstorm,124
2013-6-22,88,84,81,77,74,73,85,73,65,30.12,30.08,30.05,10,10,10,13,10,16,0.00,2,,98
2013-6-23,89,84,78,77,74,70,85,72,57,30.14,30.10,30.06,10,10,10,16,10,21,0.01,3,Rain,121
2013-6-24,88,83,79,77,74,73,88,76,65,30.18,30.13,30.09,10,9,3,16,13,26,0.18,3,Rain,102
2013-6-25,88,84,81,78,76,74,85,78,67,30.14,30.09,30.05,10,10,10,18,10,23,0.00,2,,110
2013-6-26,88,83,78,79,76,74,96,79,65,30.10,30.06,30.02,10,9,2,14,10,24,0.17,3,Rain-Thunderstorm,135
2013-6-27,87,84,82,77,75,72,85,77,69,30.06,30.02,29.98,10,10,10,10,7,,0.00,2,Rain,138
2013-6-28,89,84,77,77,75,70,100,79,63,30.00,29.96,29.88,10,10,10,15,5,20,0.02,4,Rain-Thunderstorm,166
2013-6-29,90,82,75,79,76,73,100,87,67,29.92,29.90,29.86,10,8,2,17,6,21,0.68,4,Rain-Thunderstorm,175
2013-6-30,89,83,78,78,76,73,97,82,63,29.96,29.91,29.88,10,10,3,22,9,29,0.10,2,Rain-Thunderstorm,184